419  
ASUS41 KGYX 190610  
RWRGYX  
WEATHER ROUNDUP FOR MAINE AND NEW HAMPSHIRE  
NATIONAL WEATHER SERVICE GRAY ME  
200 AM EDT TUE MAR 19 2019  
 
MEZ002-005-006-010-012-015-018-020-021-024-026-027-029-190700-  
MAINE  
 
CITY SKY/WX TMP DP RH WIND PRES REMARKS
 
PORTLAND FAIR 21 13 71 W5 30.30R  
6HR MIN TEMP: 21; 6HR MAX TEMP: 34;  
 
SANFORD FAIR 21 17 84 CALM 30.29R  
BAR HARBOR FAIR 21 9 59 CALM 30.29S  
WISCASSET FAIR 18 13 80 CALM 30.31R  
6HR MIN TEMP: 18; 6HR MAX TEMP: 30;  
 
ROCKLAND FAIR 26 6 42 VRB3 30.30R  
FRYEBURG FAIR 13 6 74 CALM 30.28R  
6HR MIN TEMP: 11; 6HR MAX TEMP: 25;  
 
LEWISTONAUBURN FAIR 15 9 76 CALM 30.29R  
AUGUSTA FAIR 22 4 46 N3 30.29R  
6HR MIN TEMP: 22; 6HR MAX TEMP: 29;  
 
WATERVILLE FAIR 20 5 52 NW5 30.26R  
BANGOR FAIR 18 7 62 SW3 30.28S  
6HR MIN TEMP: 18; 6HR MAX TEMP: 30;  
 
GREENVILLE N/A 14 -3 47 VRB3 30.15S  
6HR MIN TEMP: 14; 6HR MAX TEMP: 20;  
 
MILLINOCKET FAIR 11 1 64 CALM 30.25R  
6HR MIN TEMP: 9; 6HR MAX TEMP: 26;  
 
HOULTON MOCLDY 9 2 73 CALM 30.21R  
6HR MIN TEMP: 7; 6HR MAX TEMP: 25;  
 
PRESQUE ISLE CLOUDY 16 9 74 CALM 30.22S  
6HR MIN TEMP: 16; 6HR MAX TEMP: 23;  
 
FRENCHVILLE FAIR 13 2 61 NW5 30.17R  
6HR MIN TEMP: 13; 6HR MAX TEMP: 18;  
 
CARIBOU MOCLDY 14 4 64 NW6 30.19S  
6HR MIN TEMP: 14; 6HR MAX TEMP: 18;  
 

 
 
NHZ002-005-008-009-011-012-014-190700-  
NEW HAMPSHIRE  
 
CITY SKY/WX TMP DP RH WIND PRES REMARKS
 
PORTSMOUTH PTCLDY 26 16 66 SW3 30.28R  
ROCHESTER FAIR 25 13 60 CALM 30.28R  
6HR MIN TEMP: 23; 6HR MAX TEMP: 32;  
 
NASHUA FAIR 24 17 74 CALM 30.31R  
MANCHESTER FAIR 27 14 58 S3 30.28S  
6HR MIN TEMP: 27; 6HR MAX TEMP: 36;  
 
CONCORD FAIR 22 15 75 CALM 30.29R  
6HR MIN TEMP: 21; 6HR MAX TEMP: 32;  
 
LACONIA FAIR 19 15 84 CALM 30.28R  
PLYMOUTH MOCLDY 18 13 81 CALM 30.28S  
BERLIN FAIR 7 2 80 CALM 30.23S  
6HR MIN TEMP: 7; 6HR MAX TEMP: 27;  
 
WHITEFIELD FAIR 16 8 71 CALM 30.25R  
6HR MIN TEMP: 15; 6HR MAX TEMP: 30;  
 
JAFFREY FAIR 23 16 74 S3 30.26R  
6HR MIN TEMP: 22; 6HR MAX TEMP: 30;  
 
KEENE FAIR 21 17 84 CALM 30.30R  
LEBANON CLOUDY 27 17 66 CALM 30.27R  
6HR MIN TEMP: 24; 6HR MAX TEMP: 32;  
 
MT WASHINGTON SNOWSHWR 0 0 100 W44 N/A VSB 1/8 WCI -30  
6HR MAX TEMP: 1; 6HR PCP: TRACE;  
 

 
 
VTZ005-007-008-190700-  
VERMONT  
 
CITY SKY/WX TMP DP RH WIND PRES REMARKS
 
ST JOHNSBURY N/A 17 10 74 MISG 30.27R  
MONTPELIER CLOUDY 20 11 68 CALM 30.28S  
BURLINGTON CLOUDY 26 13 57 CALM 30.31R  

 
 
MAZ007-012-024-CTZ003-RIZ002-NYZ038-NYZ072-190700-  
SOUTHERN NEW ENGLAND AND NY  
 
CITY SKY/WX TMP DP RH WIND PRES REMARKS
 
BOSTON FAIR 36 9 32 NW6 30.31R  
WORCESTER FAIR 26 10 50 W6 30.26S  
NANTUCKET FAIR 28 21 75 CALM 30.32R  
PROVIDENCE FAIR 28 16 60 W6 30.33R  
HARTFORD MOCLDY 29 15 56 W3 30.33R  
ALBANY MOCLDY 30 21 69 SW5 30.33R  
NEW YORK CITY FAIR 39 26 59 CALM 30.34S  

 
 
ANZ081-ANZ082-ANZ150-NHZ014-MEZ023>029-190700-  
COASTAL MARINE OBSERVATIONS  
 
STATION/POSITION TIME TEMP WIND PRES WAVE
 
AIR SEA DIR/SP/G HT/PER  
(UTC) (F) (DEG/KT/KT) (MB) (FT/S)  
MOUNT DESERT ROC 0600 30 310/ 14/ 16 1025.5R  
MATINICUS ROCK 0500 31 340/ 12/ 13 1025.2R  
ISLE OF SHOALS 0500 34 290/ 5/ 6 1025.3F  
CASHES LEDGE BUO 0550 34 39 1026.0R 2/ 4  

 
   
............KEY...........
 
 
WCI - WIND CHILL  
TC - TEMPERATURE IN CELSIUS  
VSB - VISIBILITY
IN MILES  
HX - HEAT INDEX  
FAIR- INDICATES FEW OR NO CLOUDS BELOW 12,000 FT, WITH NO  
SIGNIFICANT WEATHER AND/OR S TO VISIBILITY.  
 
 
 
CLICK HERE TO GO TO PREVIOUS BULLETINS.

The Nexlab ME Page
The Nexlab NH Page Main Text Page